AirNav   ATP
 
 353 users online  

16X Propwash Airport
Justin, Texas, USA

GOING TO JUSTIN?


FAA INFORMATION EFFECTIVE 26 APRIL 2018

Location

FAA Identifier: 16X
Lat/Long: 33-04-50.2000N / 097-21-30.3000W
33-04.836667N / 097-21.505000W
33.0806111 / -97.3584167
(estimated)
Elevation: 804 ft. / 245 m (estimated)
Variation: 07E (1985)
From city: 3 miles W of JUSTIN, TX
Time zone: UTC -5 (UTC -6 during Standard Time)
Zip code: 76247

Airport Operations

Airport use: Open to the public
Activation date: 08/1976
Control tower: no
ARTCC: FORT WORTH CENTER
FSS: FORT WORTH FLIGHT SERVICE STATION
NOTAMs facility: FTW (NOTAM-D service available)
Attendance: UNATNDD
Wind indicator: yes
Segmented circle: no
Lights: ACTVT LIRL RY 17/35 - CTAF.
Beacon: white-green (lighted land airport)
ACTVT ROTG BCN - CTAF.

Airport Communications

CTAF: 122.9
WX ASOS at AFW (6 nm S): PHONE 817-491-6188
WX ASOS at DTO (11 nm NE): 119.325 (940-383-8457)
WX AWOS-3 at LUD (15 nm NW): 118.225 (940-627-2365)
WX ASOS at FTW (16 nm S): PHONE 817-740-3346
WX ASOS at DFW (20 nm SE): PHONE 972-615-2608

Nearby radio navigation aids

VOR radial/distance  VOR name  Freq  Var
FUZr316/14.6RANGER VORTAC115.7006E
TTTr302/20.4MAVERICK VOR/DME113.1006E
CVEr291/25.6COWBOY VOR/DME116.2006E
UKWr134/35.8BOWIE VORTAC112.4006E
MQPr048/38.6MILLSAP VORTAC117.7009E

 
NDB name  Hdg/Dist  Freq  Var  ID
MUFIN356/11.336508EFT ..-. -
PINCK210/14.625704EDT -.. -
GRINDSTONE MOUNTAIN140/37.735607EGMZ --. -- --..

Airport Services

Runway Information

Runway 17/35

Dimensions: 3000 x 60 ft. / 914 x 18 m
Surface: asphalt, in fair condition
Runway edge lights: low intensity
Runway edge markings: NSTD DSPLD THLD, MARKED WITH ARROWS, NOT ARROW HEADS AS PER AC 150/5340-1L.
RUNWAY 17  RUNWAY 35
Latitude: 33-05.083920N33-04.589110N
Longitude: 097-21.503135W097-21.506112W
Elevation: 804.0 ft.800.0 ft.
Traffic pattern: rightleft
Runway heading: 173 magnetic, 180 true353 magnetic, 000 true
Markings: basic, in fair conditionbasic, in fair condition
Obstructions: 35 ft. tree, 300 ft. from runway, 125 ft. left of centerline, 2:1 slope to clear
4 FT FENCE 60 FT FM RY END 40-125 FT L AND R OF CNTRLN.
21 ft. tree, 225 ft. from runway, 125 ft. right of centerline, 1:1 slope to clear
+5 FT FENCE 70 FT FM RY END ACROSS APCH; +15 FT ROAD 80 FT FM RY END ACROSS APCH.

Airport Ownership and Management from official FAA records

Ownership: Privately-owned
Owner: PROPWASH OWNERS ASSOCIATION INC
15687 CESSNA ROAD
JUSTIN, TX 76247
Phone 940-648-1720
Manager: TOM SILVA
15663 CESSNA ROAD
JUSTIN, TX 76247
Phone 940-648-0862

Airport Operational Statistics

Aircraft based on the field: 109
Single engine airplanes: 94
Multi engine airplanes: 5
Helicopters: 4
Ultralights: 6
    
Aircraft operations: avg 102/week *
94% local general aviation
6% transient general aviation
* for 12-month period ending 31 December 2015

Additional Remarks

FOR CD CTC REGIONAL APCH AT 972-615-2799.

Instrument Procedures

There are no published instrument procedures at 16X.

Some nearby airports with instrument procedures:

KAFW - Fort Worth Alliance Airport (6 nm S)
4T2 - Kenneth Copeland Airport (9 nm SW)
KDTO - Denton Enterprise Airport (11 nm NE)
KLUD - Decatur Municipal Airport (15 nm NW)
KFTW - Fort Worth Meacham International Airport (16 nm S)
KNFW - Fort Worth Naval Air Station JRB (Carswell Field) Airport (19 nm S)
KDFW - Dallas-Fort Worth International Airport (20 nm SE)
 
Loc | Ops | Rwys | IFR | FBO | Links
Com | Nav | Svcs | Stats | Notes

Lake Texoma Jet Center
AirBoss

 
Area around 16X (Propwash Airport)
 
Road maps at: MapQuest Bing Google
 
Aerial photo
WARNING: Photo may not be current or correct
Aerial photo of 16X (Propwash Airport)
Photo taken 21-Nov-2005

Do you have a better or more recent aerial photo of Propwash Airport that you would like to share? If so, please send us your photo.

 
Sectional chart

 
Airport distance calculator
Flying to Propwash Airport? Find the distance to fly.

From to 16X

Sunrise and sunset
Times for 27-Apr-2018
 Local
(UTC-5)
 Zulu
(UTC)
Morning civil twilight06:2111:21
Sunrise06:4711:47
Sunset20:0701:07
Evening civil twilight20:3401:34

Current date and time
Zulu (UTC)  27-Apr-2018 06:35:49
Local (UTC-5)  27-Apr-2018 01:35:49
 
METAR
KAFW 
7nm S 
270553Z 03011KT 10SM BKN120 BKN250 17/10 A3004 RMK AO2 SLP165 T01720100 10228 20172 402280067 51023 $
KDTO 
11nm NE 
270553Z AUTO 01007KT 10SM CLR 13/11 A3005 RMK AO2 SLP171 T01280111 10211 20128 402280044 51026
KFTW 
15nm S 
270553Z 02007KT 10SM CLR 17/11 A3003 RMK AO2 SLP165 T01670106 10228 20161 402440072 53020
KLUD 
15nm NW 
118.22 940-927-2365
270615Z AUTO 00000KT 10SM CLR 15/09 A3006 RMK AO2 T01460093
KNFW 
19nm S 
270552Z AUTO 36004KT 10SM CLR 17/09 A3004 RMK AO2 SLP155 T01720094 10228 20172 402330078 53018 $
TAF
KAFW 
7nm S 
270520Z 2706/2806 05005KT P6SM VCSH SCT120 BKN250 FM270700 02010KT P6SM VCSH BKN100 FM271000 34009KT P6SM SKC
KFTW 
15nm S 
270520Z 2706/2806 04005KT P6SM SCT120 BKN250 FM270700 02009KT P6SM VCSH BKN100 FM271000 34009KT P6SM SKC
KNFW 
19nm S 
2623/2723 36007KT 9999 FEW250 QNH2990INS FM270800 36010KT 9999 VCSH BKN050 BKN120 QNH2999INS BECMG 2710/2712 34010KT 9999 SKC QNH3008INS AUTOMATED SENSOR METWATCH 2704 TIL 2711 T11/2712Z T24/2715Z FN20047
NOTAMs
Click for the latest NOTAMs
NOTAMs are issued by the DoD/FAA and will open in a separate window not controlled by AirNav.

 

 
 

Would you like to see your business listed on this page?

 If your business provides an interesting product or service to pilots, flight crews, aircraft, or users of the Propwash Airport, you should consider listing it here.  To start the listing process, click on the button below
 
Add a business
 

Other Pages about Propwash Airport

Update a link
 
Copyright © AirNav, LLC. All rights reserved. Privacy Policy  Contact